Regional Weather Roundup
Issued by NWS

Home | Current Version | Previous Version | Text Only | Print | Product List | Glossary On
Versions: 1 2 3 4 5 6 7 8 9 10 11 12 13 14 15 16 17 18 19 20 21 22 23 24 25 26 27 28 29 30 31 32 33 34 35 36 37 38 39 40 41 42 43 44 45 46 47 48 49 50
000
ASUS43 KLSX 200407
RWRMO

WEATHER SUMMARY FOR MISSOURI
NATIONAL WEATHER SERVICE SPRINGFIELD MO
1100 PM CDT FRI SEP 19 2014

NOTE: "FAIR" INDICATES FEW OR NO CLOUDS BELOW 12,000 FEET WITH NO
       SIGNIFICANT WEATHER AND/OR OBSTRUCTIONS TO VISIBILITY.
       CURRENT SKY AND/OR WEATHER CONDITIONS ARE NOT AVAILABLE FOR
       CHILLICOTHE AND FARMINGTON.

MOZ001>031-035>038-043-044-053-054-200500-
...NORTHERN AND WESTERN MISSOURI...

CITY           SKY/WX    TMP DP  RH WIND       PRES   REMARKS
KANSAS CTY INT CLEAR     69  67  93 S9        29.95S
KANSAS C DTWN  CLEAR     72  67  84 S7        29.95S
LEE`S SUMMIT   CLEAR     70  67  90 S8        29.97S
ST JOSEPH      CLEAR     70  67  90 S8        29.93S
CHILLICOTHE      N/A     70  65  84 S5        29.96R
KIRKSVILLE     CLEAR     66  61  84 S6        29.97S

$$
MOZ066>068-077>081-088>096-101>105-200500-
...SOUTHWEST MISSOURI...

CITY           SKY/WX    TMP DP  RH WIND       PRES   REMARKS
SPRINGFIELD    PTCLDY    68  63  84 SE8       30.02R
JOPLIN         CLEAR     69  67  93 CALM      30.01R

$$
MOZ032>034-039>042-045>050-055>058-069>072-200500-
...CENTRAL MISSOURI...

CITY           SKY/WX    TMP DP  RH WIND       PRES   REMARKS
COLUMBIA       CLEAR     64  61  90 S7        30.01R
JEFFERSON CITY CLEAR     64  61  90 CALM      30.00R
ROLLA          CLEAR     66  61  84 S8        30.01S HAZE
SEDALIA        CLEAR     68  63  84 S9        29.99S
WHITEMAN AFB   CLEAR     67  64  91 S8        29.97R
OSAGE BEACH    CLEAR     64  61  88 CALM      30.01S

$$
MOZ051-052-059>065-200500-
...EAST CENTRAL MISSOURI...

CITY           SKY/WX    TMP DP  RH WIND       PRES   REMARKS
ST LOUIS INTL  PTCLDY    71  58  63 S7        30.02S
SPIRIT OF STL  CLEAR     66  59  78 S5        30.00S
ST CHARLES     CLEAR     61  58  90 E3        30.00S

$$
MOZ072>076-082>087-097>100-106>115-200500-
...SOUTH CENTRAL AND SOUTHEAST MISSOURI...

CITY           SKY/WX    TMP DP  RH WIND       PRES   REMARKS
CAPE GIRARDEAU CLEAR     60  58  92 CALM      30.04R
FARMINGTON     CLEAR     61  59  94 CALM      30.06S
POPLAR BLUFF   CLEAR     62  59  90 CALM      30.03R FOG
WEST PLAINS    CLEAR     66  63  90 CALM      30.07R

$$


USA.gov is the U.S. government's official web portal to all federal, state and local government web resources and services.